[[{"header":{"parameterUnit":"m.s-1","parameterCategory":1,"la1":30.2992,"la2":30.254,"lo1":-89.0895,"lo2":-89.0443,"dy":0.0025,"dx":0.0025,"nx":19,"ny":19,"refTime":"2026-04-16T21:00:00:Z","depth":0,"parameterNumber":2,"parameterNumberName":"U-component_of_WINDS"},"data":[0,0,0,-1.6125,-1.6127,-1.6186,-1.6186,-1.6276,-1.6277,0,0,0,0,0,0,0,0,0,0,0,-1.6114,-1.6115,-1.6125,-1.6127,-1.6186,-1.6186,-1.6276,-1.6277,0,0,0,0,0,0,0,0,0,0,0,-1.6114,-1.6115,-1.6116,-1.6127,-1.6186,-1.6186,-1.6275,-1.6226,0,0,0,0,0,0,0,0,0,0,-1.6167,-1.6162,-1.6115,-1.6116,-1.6128,-1.6186,-1.6186,-1.6224,-1.6229,-1.6254,0,-1.6276,0,-1.6278,-1.6283,-1.6284,0,0,0,-1.6123,-1.6157,-1.6167,-1.6116,-1.6128,-1.6186,-1.6158,-1.6227,-1.6233,-1.6262,-1.6278,-1.6281,-1.6279,-1.6284,-1.6284,-1.6438,-1.6439,0,0,-1.6119,-1.6129,-1.6163,-1.6172,-1.6161,-1.6156,-1.616,-1.623,-1.6249,-1.6278,-1.6282,-1.6281,-1.6285,-1.6285,-1.6437,-1.6438,0,0,0,-1.6113,-1.6127,-1.6135,-1.6168,-1.6178,-1.6158,-1.6162,-1.6246,-1.6247,-1.6283,-1.6282,-1.6285,-1.6286,-1.6436,-1.6438,-1.6491,0,0,0,-1.6111,-1.6123,-1.6133,-1.614,-1.6177,-1.6212,-1.6177,-1.6243,-1.625,-1.6281,-1.6285,-1.6287,-1.6435,-1.6437,-1.6487,-1.6515,0,0,0,-1.6108,-1.6123,-1.6133,-1.614,-1.6166,-1.6211,-1.6216,-1.6244,-1.625,-1.6284,-1.6288,-1.6434,-1.6437,-1.6484,-1.6509,-1.6557,0,0,0,-1.6109,-1.6181,-1.6134,-1.6214,-1.6166,-1.6243,-1.6216,-1.6274,-1.6309,-1.6286,-1.6435,-1.6438,-1.6483,-1.6506,-1.6554,-1.6599,-1.6619,0,0,-1.6205,-1.6193,-1.6239,-1.6199,-1.6287,-1.6233,-1.633,-1.6355,-1.6351,-1.641,-1.6413,-1.6489,-1.6509,-1.6557,-1.6727,-1.6743,0,0,0,-1.6273,-1.6307,-1.6328,-1.6361,-1.6381,-1.64,-1.6409,-1.6418,-1.6467,-1.6382,-1.6519,-1.6531,-1.6559,-1.658,-1.6593,-1.6616,-1.6448,-1.6448,-1.6447,-1.6423,-1.6412,-1.6488,-1.6485,-1.6518,-1.6526,-1.6552,-1.6566,-1.6547,-1.658,-1.6597,-1.6701,-1.6726,-1.6736,-1.676,-1.662,-1.6621,-1.6621,-1.6621,-1.6563,-1.6608,-1.658,-1.6643,-1.6632,-1.6686,-1.6697,-1.6682,-1.6731,-1.6687,-1.6711,-1.6663,-1.6754,-1.6774,-1.6625,-1.6624,-1.6624,-1.6623,-1.6623,-1.6659,-1.6678,-1.6688,-1.6735,-1.6773,-1.6768,-1.6816,-1.6805,-1.6796,-1.6819,-1.6836,-1.6835,-1.6832,-1.6828,-1.6829,-1.6829,-1.6829,-1.6829,-1.683,-1.6754,-1.6763,-1.6804,-1.6831,-1.6851,-1.6876,-1.6886,-1.6906,-1.6926,-1.6914,-1.6914,-1.6891,-1.6764,-1.6732,-1.6835,-1.6834,-1.6834,-1.6833,-1.6833,-1.6898,-1.6864,-1.6927,-1.6947,-1.6978,-1.7017,-1.7002,-1.7045,-1.706,-1.7084,-1.7057,-1.6965,-1.6952,-1.6942,-1.6915,-1.7059,-1.7059,-1.7059,-1.7059,-1.6979,-1.6971,-1.7033,-1.7066,-1.7097,-1.709,-1.7164,-1.7173,-1.7177,-1.7186,-1.7164,-1.7128,-1.7118,-1.7111,-1.7097,-1.7071,-1.7252,-1.7252,-1.7252,-1.7066,-1.7061,-1.7125,-1.7126,-1.715,-1.7171,-1.724,-1.7281,-1.7278,-1.726,-1.7193,-1.7185,-1.7127,-1.7108,-1.7087,-1.7065,-1.7019,0,0]},{"header":{"parameterUnit":"m.s-1","parameterCategory":1,"la1":30.2992,"la2":30.254,"lo1":-89.0895,"lo2":-89.0443,"dy":0.0025,"dx":0.0025,"nx":19,"ny":19,"refTime":"2026-04-16T21:00:00:Z","depth":0,"parameterNumber":3,"parameterNumberName":"V-component_of_WINDS"},"data":[0,0,0,1.8242,1.8241,1.8165,1.8165,1.8064,1.8063,0,0,0,0,0,0,0,0,0,0,0,1.8264,1.8263,1.8242,1.824,1.8165,1.8165,1.8064,1.8063,0,0,0,0,0,0,0,0,0,0,0,1.8264,1.8264,1.8263,1.824,1.8165,1.8165,1.8064,1.8122,0,0,0,0,0,0,0,0,0,0,1.8196,1.8216,1.8264,1.8263,1.824,1.8165,1.8165,1.8125,1.8118,1.8097,0,1.808,0,1.807,1.8056,1.8056,0,0,0,1.824,1.8222,1.8202,1.8263,1.8239,1.8165,1.8199,1.8121,1.8114,1.8088,1.8078,1.8074,1.8068,1.8055,1.8055,1.7938,1.7937,0,0,1.8244,1.8249,1.8207,1.8197,1.8212,1.8201,1.8197,1.8117,1.8105,1.8078,1.8072,1.8067,1.8055,1.8054,1.7938,1.7938,0,0,0,1.8256,1.8252,1.8235,1.8201,1.8188,1.8199,1.8194,1.8109,1.8103,1.8071,1.8065,1.8054,1.8053,1.7939,1.7938,1.7918,0,0,0,1.8259,1.826,1.8237,1.8239,1.819,1.8148,1.8187,1.8108,1.8099,1.8066,1.8054,1.8052,1.7939,1.7938,1.792,1.7907,0,0,0,1.8269,1.8261,1.825,1.824,1.8208,1.8149,1.8139,1.8106,1.8096,1.8056,1.8052,1.794,1.7939,1.7922,1.791,1.7878,0,0,0,1.8281,1.8232,1.825,1.8193,1.8209,1.8139,1.8139,1.8086,1.805,1.8054,1.7939,1.7938,1.7922,1.7911,1.7879,1.7851,1.7841,0,0,1.8222,1.8225,1.8191,1.8205,1.8134,1.815,1.8075,1.8034,1.8024,1.7967,1.7964,1.7919,1.791,1.7878,1.778,1.7772,0,0,0,1.8174,1.815,1.813,1.8097,1.8068,1.804,1.8012,1.7997,1.7948,1.7997,1.79,1.7894,1.7875,1.7861,1.7854,1.7837,1.7932,1.7932,1.7933,1.8097,1.809,1.8033,1.8017,1.7985,1.7957,1.7929,1.7904,1.7904,1.7881,1.7863,1.7805,1.7789,1.7784,1.7766,1.7849,1.7849,1.7849,1.7849,1.801,1.7974,1.7978,1.7924,1.7916,1.787,1.7841,1.7842,1.7797,1.7818,1.78,1.7823,1.7775,1.7759,1.7847,1.7847,1.7847,1.7848,1.7848,1.7958,1.7939,1.7925,1.7877,1.7841,1.7825,1.7782,1.7775,1.7768,1.7751,1.7732,1.7732,1.773,1.7743,1.7743,1.7742,1.7742,1.7742,1.7742,1.7909,1.7893,1.7859,1.7825,1.7804,1.7774,1.7747,1.7724,1.7697,1.7695,1.7695,1.7696,1.7773,1.7791,1.7739,1.7739,1.774,1.774,1.774,1.7821,1.7841,1.7788,1.7767,1.7726,1.7691,1.7684,1.7639,1.7619,1.7598,1.7604,1.7662,1.7663,1.7669,1.7684,1.7607,1.7607,1.7607,1.7607,1.7776,1.7778,1.7723,1.769,1.7656,1.7645,1.7584,1.7562,1.7542,1.7529,1.7539,1.7559,1.7566,1.7563,1.7571,1.7585,1.7484,1.7484,1.7484,1.7721,1.772,1.767,1.7654,1.7622,1.7594,1.7536,1.7495,1.7476,1.7479,1.7518,1.7523,1.7556,1.7567,1.7569,1.7581,1.7607,0,0]}]]